Find Starlink 3589

NORAD ID: 51997 Int'l Des: 2022-025 Owner: SPXS Country: US Constellation: starlink operational
LEOCIRCULAR

Live Position

Loading 3D Globe...

About Starlink 3589

Description loading...

Upcoming Passes

Passes for default location (London). Set your location on the main map for personalized predictions.

Altitude History

Loading altitude history...

Two-Line Element Set

1 51997U 22025AT 26105.56808658 -.00001035 00000-0 -46973-4 0 9996
2 51997 53.2159 213.5678 0001404 93.6930 266.4222 15.08837210226479
Epoch: Apr 15, 2026 • Age: 17 hours

Current Status

Altitude 546.7 km
Velocity 7.59 km/s
Sub-Earth Point -22.92°S, 107.52°E
Launch Date Mar 9, 2022
Age 4.1 years
Type internet

Technical Details

Classification Payload
Mass 297.00 kg
Dry Mass 275.00 kg
Total Mass 297.00 kg
Length 0.20 m
Diameter 2.80 m
Span 9.00 m
Shape Box + pan
Manufacturer SPXS
Bus Type Starlink
Phase Status In Orbit
Owner/State SPXS/US

Most Searched